DW2715 Weather Reports


Display with metric or nautical units.
time (UTC)temp
F
wind
direction
speed
MPH
gust
MPH
rain 1hr
in
rain 24hr
in
rain mn
in
humidity
%
barometer
mb
20260903133904 93 244 0.0 0.0 0.00 0.00 0.00 35 1017.7
20260903132903 93 156 0.0 5.0 0.00 0.00 0.00 36 1017.8
20260903131903 92 165 1.0 5.0 0.00 0.00 0.00 37 1017.7
20260903131402 92 195 0.0 5.0 0.00 0.00 0.00 37 1017.7
20260903130902 92 178 0.0 6.0 0.00 0.00 0.00 39 1017.7
20260903130403 91 184 0.0 6.0 0.00 0.00 0.00 38 1017.7
20260903125902 91 123 1.0 6.0 0.00 0.00 0.00 37 1017.7
20260903125403 91 110 1.0 6.0 0.00 0.00 0.00 37 1017.8
20260903124902 91 132 1.0 4.0 0.00 0.00 0.00 38 1017.8
20260903123403 91 135 0.0 0.0 0.00 0.00 0.00 36 1018.2
20260903122902 91 156 0.0 0.0 0.00 0.00 0.00 38 1018.2
20260903122403 91 178 0.0 0.0 0.00 0.00 0.00 38 1018.2
20260903121904 90 217 0.0 0.0 0.00 0.00 0.00 38 1018.2
20260903121404 89 306 0.0 0.0 0.00 0.00 0.00 38 1018.2
20260903120903 90 131 0.0 0.0 0.00 0.00 0.00 39 1018.2
20260903120402 90 200 0.0 0.0 0.00 0.00 0.00 41 1018.2
20260903115902 89 198 0.0 0.0 0.00 0.00 0.00 39 1018.1
20260903114903 89 281 0.0 0.0 0.00 0.00 0.00 38 1018.2
20260903114403 89 124 0.0 0.0 0.00 0.00 0.00 39 1018.3
20260903113902 89 134 0.0 0.0 0.00 0.00 0.00 40 1018.3
20260903112902 89 236 0.0 0.0 0.00 0.00 0.00 40 1018.5
20260903112402 89 163 0.0 3.0 0.00 0.00 0.00 39 1018.6
20260903111902 88 146 0.0 3.0 0.00 0.00 0.00 39 1018.6
20260903111401 88 121 0.0 2.0 0.00 0.00 0.00 41 1018.6
20260903110901 88 169 0.0 4.0 0.00 0.00 0.00 39 1018.7
20260903105401 88 13 0.0 0.0 0.00 0.00 0.00 43 1018.8
20260903104901 87 202 0.0 0.0 0.00 0.00 0.00 43 1018.7
20260903104401 87 159 0.0 0.0 0.00 0.00 0.00 44 1018.7
20260903103901 86 101 0.0 0.0 0.00 0.00 0.00 43 1018.8
20260903103401 87 329 0.0 2.0 0.00 0.00 0.00 43 1018.9
20260903102903 86 98 0.0 6.0 0.00 0.00 0.00 45 1018.8
20260903102401 86 90 1.0 6.0 0.00 0.00 0.00 43 1019.0
20260903101901 86 175 0.0 7.0 0.00 0.00 0.00 45 1019.0
20260903101401 86 101 0.0 7.0 0.00 0.00 0.00 44 1019.1
20260903100901 85 167 0.0 0.0 0.00 0.00 0.00 47 1019.2
20260903100401 85 200 0.0 4.0 0.00 0.00 0.00 47 1019.3
20260903095901 85 341 0.0 4.0 0.00 0.00 0.00 46 1019.3
20260903095359 85 86 0.0 2.0 0.00 0.00 0.00 45 1019.4
20260903093843 84 82 0.0 4.0 0.00 0.00 0.00 48 1019.4
20260903093334 84 125 0.0 3.0 0.00 0.00 0.00 46 1019.5
20260903092833 84 83 0.0 4.0 0.00 0.00 0.00 47 1019.6
20260903091831 83 136 0.0 3.0 0.00 0.00 0.00 51 1019.6
20260903091332 83 5 0.0 3.0 0.00 0.00 0.00 51 1019.7
20260903090829 83 123 0.0 1.0 0.00 0.00 0.00 51 1019.6
20260903085830 82 62 0.0 5.0 0.00 0.00 0.00 51 1019.6
20260903085328 82 46 0.0 8.0 0.00 0.00 0.00 50 1019.6
20260903084831 82 79 0.0 8.0 0.00 0.00 0.00 51 1019.6
20260903084328 82 11 0.0 3.0 0.00 0.00 0.00 52 1019.6
20260903083829 82 17 1.0 3.0 0.00 0.00 0.00 52 1019.5
20260903083328 82 10 0.0 4.0 0.00 0.00 0.00 52 1019.5
20260903082329 81 77 1.0 5.0 0.00 0.00 0.00 53 1019.5
20260903081328 81 85 0.0 6.0 0.00 0.00 0.00 53 1019.5
20260903080829 80 98 0.0 4.0 0.00 0.00 0.00 54 1019.5
20260903080330 80 40 0.0 5.0 0.00 0.00 0.00 53 1019.6
20260903075829 80 53 0.0 5.0 0.00 0.00 0.00 53 1019.5
20260903075329 80 72 0.0 3.0 0.00 0.00 0.00 53 1019.5
20260903074830 79 341 0.0 2.0 0.00 0.00 0.00 54 1019.5
20260903074328 79 26 0.0 2.0 0.00 0.00 0.00 54 1019.5
20260903073830 79 65 0.0 4.0 0.00 0.00 0.00 55 1019.5
20260903072829 78 17 0.0 2.0 0.00 0.00 0.00 55 1019.4
20260903072329 78 46 0.0 3.0 0.00 0.00 0.00 56 1019.4
20260903070829 77 63 0.0 4.0 0.00 0.00 0.00 59 1019.4
20260903070330 76 13 0.0 4.0 0.00 0.00 0.00 60 1019.4
20260903065829 76 15 0.0 4.0 0.00 0.00 0.00 62 1019.4
20260903065329 76 309 0.0 0.0 0.00 0.00 0.00 65 1019.3
20260903064828 75 355 0.0 0.0 0.00 0.00 0.00 66 1019.3
20260903063829 74 351 0.0 0.0 0.00 0.00 0.00 69 1019.4
20260903063329 74 350 0.0 0.0 0.00 0.00 0.00 70 1019.3
20260903062830 73 350 0.0 0.0 0.00 0.00 0.00 72 1019.3
20260903061829 72 350 0.0 0.0 0.00 0.00 0.00 73 1019.1
20260903061329 72 350 0.0 0.0 0.00 0.00 0.00 73 1019.1
20260903060829 72 355 0.0 0.0 0.00 0.00 0.00 74 1019.0
20260903060328 72 355 0.0 0.0 0.00 0.00 0.00 74 1019.0
20260903055828 71 355 0.0 0.0 0.00 0.00 0.00 74 1019.0
20260903055329 71 355 0.0 0.0 0.00 0.00 0.00 75 1019.0
20260903054829 71 355 0.0 0.0 0.00 0.00 0.00 76 1018.9
20260903054330 71 5 0.0 0.0 0.00 0.00 0.00 76 1018.9
20260903053829 70 5 0.0 0.0 0.00 0.00 0.00 76 1018.9
20260903052828 70 5 0.0 0.0 0.00 0.00 0.00 77 1018.8
20260903052322 69 5 0.0 0.0 0.00 0.00 0.00 79 1018.8
20260903051816 69 5 0.0 0.0 0.00 0.00 0.00 79 1018.7
20260903051309 69 5 0.0 0.0 0.00 0.00 0.00 80 1018.7
20260903050807 69 5 0.0 0.0 0.00 0.00 0.00 81 1018.5
20260903050306 69 5 0.0 0.0 0.00 0.00 0.00 80 1018.4
20260903045806 69 5 0.0 0.0 0.00 0.00 0.00 80 1018.4
20260903043804 69 5 0.0 0.0 0.00 0.00 0.00 80 1018.1
20260903043305 69 5 0.0 0.0 0.00 0.00 0.00 79 1018.2
20260903042802 69 5 0.0 0.0 0.00 0.00 0.00 79 1018.2
20260903042305 69 5 0.0 0.0 0.00 0.00 0.00 79 1018.2
20260903041303 69 5 0.0 0.0 0.00 0.00 0.00 79 1018.1
20260903040804 69 5 0.0 0.0 0.00 0.00 0.00 79 1018.1
20260903040303 69 5 0.0 0.0 0.00 0.00 0.00 80 1018.1
20260903035804 69 5 0.0 0.0 0.00 0.00 0.00 80 1018.1
20260903035306 69 5 0.0 0.0 0.00 0.00 0.00 80 1018.0
20260903034802 69 9 0.0 0.0 0.00 0.00 0.00 81 1018.1
20260903034303 70 5 0.0 0.0 0.00 0.00 0.00 81 1018.2
20260903033802 70 5 0.0 0.0 0.00 0.00 0.00 80 1018.1
20260903033302 70 5 0.0 0.0 0.00 0.00 0.00 80 1018.1
20260903032802 70 5 0.0 0.0 0.00 0.00 0.00 80 1018.1
20260903032305 70 5 0.0 0.0 0.00 0.00 0.00 80 1018.1
20260903031803 70 5 0.0 0.0 0.00 0.00 0.00 80 1018.2
20260903031302 70 5 0.0 0.0 0.00 0.00 0.00 80 1018.2
20260903030802 70 5 0.0 0.0 0.00 0.00 0.00 80 1018.2
20260903030302 70 5 0.0 0.0 0.00 0.00 0.00 81 1018.1
20260903025803 70 5 0.0 0.0 0.00 0.00 0.00 81 1018.1
20260903025305 70 5 0.0 0.0 0.00 0.00 0.00 80 1018.0
20260903024802 70 5 0.0 0.0 0.00 0.00 0.00 80 1018.0
20260903023803 71 5 0.0 0.0 0.00 0.00 0.00 80 1018.1
20260903023306 71 5 0.0 0.0 0.00 0.00 0.00 80 1018.1
20260903022803 71 5 0.0 0.0 0.00 0.00 0.00 80 1018.1
20260903022305 71 5 0.0 0.0 0.00 0.00 0.00 79 1018.2
20260903021802 71 5 0.0 0.0 0.00 0.00 0.00 79 1018.1
20260903021302 71 5 0.0 0.0 0.00 0.00 0.00 79 1018.2
20260903015801 71 5 0.0 0.0 0.00 0.00 0.00 78 1018.2
20260903015305 71 5 0.0 0.0 0.00 0.00 0.00 78 1018.2
20260903014758 72 5 0.0 0.0 0.00 0.00 0.00 77 1018.2
20260903014255 72 5 0.0 0.0 0.00 0.00 0.00 77 1018.2
20260903013753 72 9 0.0 0.0 0.00 0.00 0.00 76 1018.3
20260903013251 72 9 0.0 0.0 0.00 0.00 0.00 76 1018.2
20260903012749 72 9 0.0 0.0 0.00 0.00 0.00 75 1018.2
20260903012249 73 9 0.0 0.0 0.00 0.00 0.00 75 1018.1
20260903011247 73 9 0.0 0.0 0.00 0.00 0.00 75 1018.1
20260903010247 73 9 0.0 0.0 0.00 0.00 0.00 74 1018.1
20260903005747 73 9 0.0 0.0 0.00 0.00 0.00 74 1018.1
20260903005247 73 40 0.0 0.0 0.00 0.00 0.00 73 1018.1
20260903004745 73 41 0.0 0.0 0.00 0.00 0.00 74 1018.0
20260903004246 73 41 0.0 0.0 0.00 0.00 0.00 74 1018.0
20260903003746 73 41 0.0 0.0 0.00 0.00 0.00 75 1018.0
20260903003243 73 41 0.0 0.0 0.00 0.00 0.00 75 1018.0
20260903002745 73 41 0.0 0.0 0.00 0.00 0.00 75 1018.0
20260903002244 73 41 0.0 0.0 0.00 0.00 0.00 75 1018.0
20260903001746 73 42 0.0 0.0 0.00 0.00 0.00 75 1018.1
20260903001239 73 42 0.0 0.0 0.00 0.00 0.00 75 1018.1
20260903000237 73 40 0.0 0.0 0.00 0.00 0.00 75 1018.0
20260902235737 73 41 0.0 3.0 0.00 0.00 0.00 74 1018.1
20260902234736 73 57 0.0 3.0 0.00 0.00 0.00 73 1018.0
20260902232234 73 153 0.0 0.0 0.00 0.00 0.00 73 1018.0
20260902230732 73 163 0.0 0.0 0.00 0.00 0.00 74 1017.9
20260902230233 73 163 0.0 0.0 0.00 0.00 0.00 74 1017.9
20260902225731 73 163 0.0 0.0 0.00 0.00 0.00 74 1017.9
20260902225231 73 163 0.0 0.0 0.00 0.00 0.00 74 1017.9
20260902224731 73 167 0.0 0.0 0.00 0.00 0.00 74 1017.9
20260902224231 73 208 0.0 0.0 0.00 0.00 0.00 73 1017.9
20260902223731 73 208 0.0 0.0 0.00 0.00 0.00 73 1017.8
20260902223230 73 208 0.0 0.0 0.00 0.00 0.00 73 1017.8
20260902222730 74 208 0.0 0.0 0.00 0.00 0.00 73 1017.8
20260902222230 74 208 0.0 0.0 0.00 0.00 0.00 73 1017.8
20260902221731 74 208 0.0 0.0 0.00 0.00 0.00 72 1017.7
20260902221230 74 208 0.0 0.0 0.00 0.00 0.00 71 1017.7
20260902220732 74 208 0.0 0.0 0.00 0.00 0.00 71 1017.7
20260902220232 74 208 0.0 0.0 0.00 0.00 0.00 71 1017.6
20260902215732 74 208 0.0 0.0 0.00 0.00 0.00 71 1017.6
20260902215230 74 208 0.0 0.0 0.00 0.00 0.00 71 1017.6
20260902214726 74 208 0.0 0.0 0.00 0.00 0.00 71 1017.6
20260902214226 74 208 0.0 0.0 0.00 0.00 0.00 71 1017.5
20260902213726 74 208 0.0 0.0 0.00 0.00 0.00 71 1017.5
20260902213226 75 208 0.0 0.0 0.00 0.00 0.00 70 1017.5
20260902212725 75 208 0.0 0.0 0.00 0.00 0.00 69 1017.3
20260902212229 75 208 0.0 0.0 0.00 0.00 0.00 68 1017.3
20260902211726 75 208 0.0 0.0 0.00 0.00 0.00 68 1017.3
20260902211226 75 208 0.0 0.0 0.00 0.00 0.00 68 1017.3
20260902210726 75 208 0.0 0.0 0.00 0.00 0.00 68 1017.2
20260902210222 76 208 0.0 0.0 0.00 0.00 0.00 68 1017.2
20260902205722 76 208 0.0 0.0 0.00 0.00 0.00 68 1017.2
20260902205225 76 208 0.0 0.0 0.00 0.00 0.00 68 1017.2
20260902204725 76 208 0.0 0.0 0.00 0.00 0.00 67 1017.2
20260902204223 76 208 0.0 0.0 0.00 0.00 0.00 67 1017.2
20260902203223 76 208 0.0 0.0 0.00 0.00 0.00 67 1017.0
20260902202218 77 208 0.0 0.0 0.00 0.00 0.00 65 1016.9
20260902201715 77 208 0.0 0.0 0.00 0.00 0.00 65 1016.9
20260902201215 77 208 0.0 0.0 0.00 0.00 0.00 65 1017.0
20260902200709 77 208 0.0 2.0 0.00 0.00 0.00 65 1017.0
20260902200203 77 208 0.0 2.0 0.00 0.00 0.00 65 1017.0
20260902195704 77 205 0.0 3.0 0.00 0.00 0.00 65 1017.0
20260902195205 77 205 0.0 3.0 0.00 0.00 0.00 66 1017.0
20260902194703 77 187 0.0 0.0 0.00 0.00 0.00 66 1017.0
20260902194203 78 125 0.0 0.0 0.00 0.00 0.00 66 1016.9
20260902193202 78 109 0.0 0.0 0.00 0.00 0.00 67 1016.9
20260902192703 78 109 0.0 0.0 0.00 0.00 0.00 66 1016.8
20260902192203 78 109 0.0 0.0 0.00 0.00 0.00 66 1016.8
20260902191704 79 109 0.0 0.0 0.00 0.00 0.00 65 1016.8
20260902191203 79 109 0.0 0.0 0.00 0.00 0.00 65 1016.8
20260902190703 79 109 0.0 0.0 0.00 0.00 0.00 65 1016.7
20260902190202 79 109 0.0 0.0 0.00 0.00 0.00 64 1016.7
20260902185702 79 109 0.0 0.0 0.00 0.00 0.00 64 1016.6
20260902184703 80 109 0.0 0.0 0.00 0.00 0.00 63 1016.5
20260902183703 80 109 0.0 0.0 0.00 0.00 0.00 62 1016.4
20260902183157 80 109 0.0 0.0 0.00 0.00 0.00 61 1016.3
20260902182651 80 109 0.0 0.0 0.00 0.00 0.00 61 1016.3
20260902181648 81 108 0.0 2.0 0.00 0.00 0.00 60 1016.2
20260902180644 81 108 0.0 0.0 0.00 0.00 0.00 59 1016.1
20260902175143 83 110 0.0 3.0 0.00 0.00 0.00 57 1015.8
20260902174642 83 126 0.0 0.0 0.00 0.00 0.00 55 1015.8
20260902174138 84 128 0.0 0.0 0.00 0.00 0.00 53 1015.8
20260902173635 85 126 0.0 0.0 0.00 0.00 0.00 52 1015.7
20260902173133 86 113 0.0 3.0 0.00 0.00 0.00 51 1015.8
20260902172631 87 131 0.0 3.0 0.00 0.00 0.00 49 1015.7
20260902172131 87 145 0.0 3.0 0.00 0.00 0.00 48 1015.8
20260902171130 88 140 0.0 0.0 0.00 0.00 0.00 47 1015.7
20260902170631 89 140 0.0 3.0 0.00 0.00 0.00 47 1015.7
20260902170133 89 139 0.0 3.0 0.00 0.00 0.00 45 1015.8
20260902165632 90 163 0.0 0.0 0.00 0.00 0.00 45 1015.8
20260902165130 90 192 0.0 4.0 0.00 0.00 0.00 43 1015.8
20260902164631 91 222 0.0 4.0 0.00 0.00 0.00 40 1015.8
20260902164130 91 203 0.0 5.0 0.00 0.00 0.00 40 1015.7
20260902163631 91 240 0.0 5.0 0.00 0.00 0.00 39 1015.7
20260902162631 91 200 0.0 3.0 0.00 0.00 0.00 39 1015.7
20260902162130 91 195 0.0 3.0 0.00 0.00 0.00 39 1015.7
20260902161632 91 199 0.0 0.0 0.00 0.00 0.00 40 1015.8
20260902161130 91 198 0.0 0.0 0.00 0.00 0.00 39 1015.8
20260902160131 91 227 0.0 0.0 0.00 0.00 0.00 39 1015.7
20260902155131 91 191 0.0 0.0 0.00 0.00 0.00 39 1015.7
20260902154630 91 136 0.0 0.0 0.00 0.00 0.00 40 1015.8
20260902154130 90 204 0.0 0.0 0.00 0.00 0.00 41 1015.8
20260902153630 90 216 0.0 0.0 0.00 0.00 0.00 40 1015.8
20260902153130 90 254 0.0 0.0 0.00 0.00 0.00 41 1015.8
20260902152631 89 254 0.0 2.0 0.00 0.00 0.00 41 1015.9
20260902152127 89 202 0.0 3.0 0.00 0.00 0.00 42 1015.9
20260902151622 89 296 0.0 3.0 0.00 0.00 0.00 41 1015.9
20260902151114 89 271 0.0 1.0 0.00 0.00 0.00 41 1016.1
20260902150612 90 270 1.0 4.0 0.00 0.00 0.00 40 1016.2
20260902145611 91 211 1.0 5.0 0.00 0.00 0.00 40 1016.3
20260902144111 91 221 1.0 5.0 0.00 0.00 0.00 39 1016.4
20260902143611 92 186 0.0 8.0 0.00 0.00 0.00 39 1016.4
20260902143111 91 209 1.0 8.0 0.00 0.00 0.00 38 1016.4
20260902142611 92 243 1.0 7.0 0.00 0.00 0.00 38 1016.5
20260902142111 92 190 1.0 6.0 0.00 0.00 0.00 40 1016.6
20260902141611 91 169 1.0 6.0 0.00 0.00 0.00 39 1016.6
20260902141111 90 182 1.0 5.0 0.00 0.00 0.00 41 1016.7
20260902140607 90 205 0.0 4.0 0.00 0.00 0.00 42 1016.7
20260902140106 89 195 0.0 4.0 0.00 0.00 0.00 42 1016.8
20260902135607 90 197 0.0 3.0 0.00 0.00 0.00 40 1016.8
20260902135107 90 236 0.0 6.0 0.00 0.00 0.00 39 1016.8
20260902134607 91 194 0.0 6.0 0.00 0.00 0.00 41 1016.8